sat.trackr.live / text

‹ back to catalog

STARLINK-6277

NORAD 56399 · 2023-061AB

PAYLOAD ACTIVE UNKNOWN

§ Identity

Operator
Country
US
Launch date
2023-05-04
Launch site
AFETR
Launch vehicle
Mass (kg)
RCS (m²)

Purposes: comms

External: N2YO · Heavens-Above · Gunter

§ Orbital elements

Epoch: 2026-09-20T02:59:59.819424Z

Period
94.27 min
Inclination
43.0031°
Eccentricity
0.0001083
Mean motion
15.27572320 rev/d
Perigee alt
482.3 km
Apogee alt
483.8 km
Semi-major
6,861.2 km
B*
-1.1796e-5
RAAN
168.7499°
Arg perigee
265.8930°
Mean anomaly
94.1798°
Rev number
18,661

§ Raw data

STARLINK-62771 56399U 23061AB  26263.12499791 -.00000587  00000+0 -11796-4 0  99942 56399  43.0031 168.7499 0001083 265.8930  94.1798 15.27572320186618

JSON: /api/v1/satellites/56399 · /tle

For live sub-satellite position, see the globe view (requires WebGL).

§ Visibility from observer

Set your observer location to see the next 7 days of passes ≥ 10°. The values pass through the URL so the page stays shareable.

No JS? Fill the form by hand. The geolocation button needs JavaScript.